Home > Weather > Cambridge > Past weeks

Flag for United Kingdom Past Weather in Cambridge, England, United Kingdom — Yesterday and Last 2 Weeks

Now
57 °F

Sunny.


Feels Like: 56 °F
Forecast: 53 / 78 °F
Wind: 6 mph from North

Location: Mildenhall Royal Air Force Base

Current Time: Aug 29, 2016 at 8:35:15 AM

Latest Report: Aug 29, 2016 at 7:58 AM


Visibility: N/A

Pressure: 30.13 "Hg

Humidity: 100%

Dew Point: 57 °F

Location of CambridgeLocation

Past Weather in Cambridge — Graph

°F

Cambridge Temperature Yesterday

Maximum temperature yesterday: 73 °F (at 3:58 PM)
Minimum temperature yesterday: 60 °F (at 11:58 PM)
Average temperature yesterday: 65 °F

High & Low Weather Summary for the Past Weeks

 TemperatureHumidityPressure
High87 °F (Aug 24, 1:58 PM)100% (Aug 15, 2:58 AM)30.32 "Hg (Aug 15, 2:58 AM)
Low47 °F (Aug 16, 3:58 AM)32% (Aug 26, 3:58 PM)29.64 "Hg (Aug 20, 2:58 PM)
Average65 °F81%29.99 "Hg
* Reported Aug 14 6:58 AM — Aug 29 6:58 AM, Cambridge, Weather by CustomWeather, © 2016

Note: Actual official high and low records may vary slightly from our data, if they occured in-between our weather recording intervals... More about our weather records

Advertising

Cambridge Weather History for the Previous 24 Hours

Scroll right to see more
 ConditionsComfort  
Time TempWeatherWind HumidityBarometerVisibility
6:58 AM
Mon, Aug 29
51 °FClear.5 mph100%30.12 "HgN/A
5:58 AM52 °FClear.3 mph100%30.10 "HgN/A
4:58 AM52 °FClear.3 mph100%30.08 "HgN/A
3:58 AM54 °FClear.3 mph100%30.07 "HgN/A
2:58 AM55 °FClear.2 mph100%30.05 "HgN/A
1:58 AM56 °FClear.6 mph100%30.04 "HgN/A
12:58 AM58 °FPassing clouds.2 mph100%30.03 "HgN/A
11:58 PM
Sun, Aug 28
60 °FOvercast.7 mph100%30.03 "HgN/A
10:58 PM61 °FMostly cloudy.6 mph100%30.01 "HgN/A
10:03 PM63 °FOvercast.6 mph100%29.98 "HgN/A
9:58 PM62 °FOvercast.9 mph100%29.99 "HgN/A
9:03 PM63 °FMostly cloudy.7 mph100%29.96 "HgN/A
7:58 PM64 °FBroken clouds.3 mph100%29.94 "HgN/A
6:59 PM66 °FLight rain. Partly sunny.6 mph100%29.90 "HgN/A
6:58 PM66 °FPartly sunny.6 mph98%29.91 "HgN/A
5:58 PM68 °FPartly sunny.9 mph92%29.90 "HgN/A
4:58 PM67 °FLight rain. Partly sunny.9 mph97%29.89 "HgN/A
3:58 PM73 °FBroken clouds.12 mph61%29.88 "HgN/A
2:58 PM73 °FBroken clouds.9 mph64%29.87 "HgN/A
1:58 PM71 °FOvercast.12 mph68%29.87 "HgN/A
12:58 PM70 °FBroken clouds.10 mph69%29.87 "HgN/A
11:58 AM72 °FBroken clouds.15 mph62%29.86 "HgN/A
10:58 AM71 °FScattered clouds.16 mph64%29.86 "HgN/A
9:58 AM68 °FBroken clouds.16 mph73%29.86 "HgN/A
9:03 AM66 °FBroken clouds.13 mph88%29.84 "HgN/A
8:58 AM66 °FPartly sunny.13 mph86%29.85 "HgN/A
Weather by CustomWeather, © 2016

See weather overviewHow to use our weather pages